sat.trackr.live / text

‹ back to catalog

STARLINK-6291

NORAD 56547 · 2023-065AW

PAYLOAD ACTIVE UNKNOWN

§ Identity

Operator
Country
US
Launch date
2023-05-14
Launch site
AFETR
Launch vehicle
Mass (kg)
RCS (m²)

Purposes: comms

External: N2YO · Heavens-Above · Gunter

§ Orbital elements

Epoch: 2026-09-20T05:13:53.052096Z

Period
94.27 min
Inclination
43.0026°
Eccentricity
0.0000554
Mean motion
15.27573638 rev/d
Perigee alt
482.7 km
Apogee alt
483.4 km
Semi-major
6,861.2 km
B*
2.5118e-5
RAAN
204.9134°
Arg perigee
252.6132°
Mean anomaly
107.4659°
Rev number
18,622

§ Raw data

STARLINK-62911 56547U 23065AW  26263.21797514  .00000429  00000+0  25118-4 0  99932 56547  43.0026 204.9134 0000554 252.6132 107.4659 15.27573638186220

JSON: /api/v1/satellites/56547 · /tle

For live sub-satellite position, see the globe view (requires WebGL).

§ Visibility from observer

Set your observer location to see the next 7 days of passes ≥ 10°. The values pass through the URL so the page stays shareable.

No JS? Fill the form by hand. The geolocation button needs JavaScript.